Time,TemperatureF,DewpointF,PressureIn,WindDirection,WindDirectionDegrees,WindSpeedMPH,WindSpeedGustMPH,Humidity,HourlyPrecipIn,Conditions,Clouds,dailyrainin,SolarRadiationWatts/m^2,SoftwareType,DateUTC
2013-01-15 00:04:00,41.0,41.0,-100.00,ENE,64,5.0,10.0,100,0.09,,,2.09,0.000000,,2013-01-15 05:04:00,
2013-01-15 00:33:00,41.0,41.0,-100.00,East,86,5.0,13.0,99,0.03,,,2.07,0.000000,,2013-01-15 05:33:00,
2013-01-15 00:42:00,41.0,41.0,-100.00,East,86,5.0,13.0,99,0.03,,,2.07,0.000000,,2013-01-15 05:42:00,
2013-01-15 00:53:00,41.0,41.0,-100.00,East,86,5.0,13.0,99,0.03,,,2.07,0.000000,,2013-01-15 05:53:00,
2013-01-15 01:03:00,41.0,41.0,-100.00,East,86,5.0,13.0,99,0.03,,,2.07,0.000000,,2013-01-15 06:03:00,
2013-01-15 01:33:00,40.0,40.0,-100.00,ENE,68,5.0,9.0,99,0.04,,,2.01,0.000000,,2013-01-15 06:33:00,
2013-01-15 01:43:00,40.0,40.0,-100.00,ENE,68,5.0,9.0,99,0.04,,,2.01,0.000000,,2013-01-15 06:43:00,
2013-01-15 01:53:00,40.0,40.0,-100.00,ENE,68,5.0,9.0,99,0.04,,,2.01,0.000000,,2013-01-15 06:53:00,
2013-01-15 02:02:00,40.0,40.0,-100.00,ENE,68,5.0,9.0,99,0.04,,,2.01,0.000000,,2013-01-15 07:02:00,
2013-01-15 02:33:00,40.0,40.0,-100.00,NE,52,3.0,7.0,100,0.02,,,-99.99,0.000000,,2013-01-15 07:33:00,
2013-01-15 02:43:00,40.0,40.0,-100.00,NE,52,3.0,7.0,100,0.02,,,-99.99,0.000000,,2013-01-15 07:43:00,
2013-01-15 02:53:00,40.0,40.0,-100.00,NE,52,3.0,7.0,100,0.02,,,-99.99,0.000000,,2013-01-15 07:53:00,
2013-01-15 03:02:00,40.0,40.0,-100.00,NE,52,3.0,7.0,100,0.02,,,-99.99,0.000000,,2013-01-15 08:02:00,
2013-01-15 03:33:00,41.0,41.0,-100.00,ENE,71,4.0,7.0,100,0.00,,,1.96,0.000000,,2013-01-15 08:33:00,
2013-01-15 03:43:00,41.0,41.0,-100.00,ENE,71,4.0,7.0,100,0.00,,,1.96,0.000000,,2013-01-15 08:43:00,
2013-01-15 03:53:00,41.0,41.0,-100.00,ENE,71,4.0,7.0,100,0.00,,,1.96,0.000000,,2013-01-15 08:53:00,
2013-01-15 04:02:00,41.0,41.0,-100.00,ENE,71,4.0,7.0,100,0.00,,,1.96,0.000000,,2013-01-15 09:02:00,
2013-01-15 04:33:00,41.0,41.0,-100.00,WNW,287,1.0,5.0,100,0.14,,,2.08,0.000000,,2013-01-15 09:33:00,
2013-01-15 04:43:00,41.0,41.0,-100.00,WNW,287,1.0,5.0,100,0.14,,,2.08,0.000000,,2013-01-15 09:43:00,
2013-01-15 04:52:00,41.0,41.0,-100.00,WNW,287,1.0,5.0,100,0.14,,,2.08,0.000000,,2013-01-15 09:52:00,
2013-01-15 05:02:00,41.0,41.0,-100.00,WNW,287,1.0,5.0,100,0.14,,,2.08,0.000000,,2013-01-15 10:02:00,
2013-01-15 05:33:00,42.0,42.0,-100.00,WNW,302,1.0,2.0,100,0.25,,,2.26,0.000000,,2013-01-15 10:33:00,
2013-01-15 05:42:00,42.0,42.0,-100.00,WNW,302,1.0,2.0,100,0.25,,,2.26,0.000000,,2013-01-15 10:42:00,
2013-01-15 05:52:00,42.0,42.0,-100.00,WNW,302,1.0,2.0,100,0.25,,,2.26,0.000000,,2013-01-15 10:52:00,
2013-01-15 06:02:00,42.0,42.0,-100.00,WNW,302,1.0,2.0,100,0.25,,,2.26,0.000000,,2013-01-15 11:02:00,
2013-01-15 06:33:00,42.0,42.0,-100.00,South,186,1.0,3.0,100,0.13,,,2.36,0.000000,,2013-01-15 11:33:00,
2013-01-15 06:43:00,42.0,42.0,-100.00,South,186,1.0,3.0,100,0.13,,,2.36,0.000000,,2013-01-15 11:43:00,
2013-01-15 06:53:00,42.0,42.0,-100.00,South,186,1.0,3.0,100,0.13,,,2.36,0.000000,,2013-01-15 11:53:00,
2013-01-15 07:03:00,42.0,42.0,-100.00,South,186,1.0,3.0,100,0.13,,,2.36,0.000000,,2013-01-15 12:03:00,
2013-01-15 07:33:00,43.0,43.0,-100.00,West,280,2.0,4.0,100,0.16,,,2.46,0.000000,,2013-01-15 12:33:00,
2013-01-15 07:43:00,43.0,43.0,-100.00,West,280,2.0,4.0,100,0.16,,,2.46,0.000000,,2013-01-15 12:43:00,
2013-01-15 07:53:00,43.0,43.0,-100.00,West,280,2.0,4.0,100,0.16,,,2.46,0.000000,,2013-01-15 12:53:00,
2013-01-15 08:03:00,43.0,43.0,-100.00,West,280,2.0,4.0,100,0.16,,,2.46,0.000000,,2013-01-15 13:03:00,
2013-01-15 08:33:00,43.0,43.0,-100.00,SE,139,1.0,4.0,100,0.19,,,2.62,0.000000,,2013-01-15 13:33:00,
2013-01-15 08:43:00,43.0,43.0,-100.00,SE,139,1.0,4.0,100,0.19,,,2.62,0.000000,,2013-01-15 13:43:00,
2013-01-15 08:53:00,43.0,43.0,-100.00,SE,139,1.0,4.0,100,0.19,,,2.62,0.000000,,2013-01-15 13:53:00,
2013-01-15 09:03:00,43.0,43.0,-100.00,SE,139,1.0,4.0,100,0.19,,,2.62,0.000000,,2013-01-15 14:03:00,
2013-01-15 09:33:00,43.0,43.0,-100.00,NE,34,2.0,7.0,100,0.07,,,2.66,5.000000,,2013-01-15 14:33:00,
2013-01-15 09:43:00,43.0,43.0,-100.00,NE,34,2.0,7.0,100,0.07,,,2.66,5.000000,,2013-01-15 14:43:00,
2013-01-15 09:54:00,43.0,43.0,-100.00,NE,34,2.0,7.0,100,0.07,,,2.66,5.000000,,2013-01-15 14:54:00,
2013-01-15 10:03:00,43.0,43.0,-100.00,NE,34,2.0,7.0,100,0.07,,,2.66,5.000000,,2013-01-15 15:03:00,
2013-01-15 10:33:00,42.0,42.0,-100.00,NNE,26,3.0,7.0,100,0.05,,,2.60,17.000000,,2013-01-15 15:33:00,
2013-01-15 10:43:00,42.0,42.0,-100.00,NNE,26,3.0,7.0,100,0.05,,,2.60,17.000000,,2013-01-15 15:43:00,
2013-01-15 10:53:00,42.0,42.0,-100.00,NNE,26,3.0,7.0,100,0.05,,,2.60,17.000000,,2013-01-15 15:53:00,
2013-01-15 11:03:00,42.0,42.0,-100.00,NNE,26,3.0,7.0,100,0.05,,,2.60,17.000000,,2013-01-15 16:03:00,
2013-01-15 11:33:00,43.0,43.0,-100.00,NNE,33,2.0,5.0,99,0.00,,,2.45,27.000000,,2013-01-15 16:33:00,
2013-01-15 11:43:00,43.0,43.0,-100.00,NNE,33,2.0,5.0,99,0.00,,,2.45,27.000000,,2013-01-15 16:43:00,
2013-01-15 11:53:00,43.0,43.0,-100.00,NNE,33,2.0,5.0,99,0.00,,,2.45,27.000000,,2013-01-15 16:53:00,
2013-01-15 12:04:00,43.0,43.0,-100.00,NNE,33,2.0,5.0,99,0.00,,,2.45,27.000000,,2013-01-15 17:04:00,
2013-01-15 12:33:00,43.0,43.0,-100.00,East,100,4.0,7.0,100,0.04,,,2.47,37.000000,,2013-01-15 17:33:00,
2013-01-15 12:43:00,43.0,43.0,-100.00,East,100,4.0,7.0,100,0.04,,,2.47,37.000000,,2013-01-15 17:43:00,
2013-01-15 12:53:00,43.0,43.0,-100.00,East,100,4.0,7.0,100,0.04,,,2.47,37.000000,,2013-01-15 17:53:00,
2013-01-15 13:03:00,43.0,43.0,-100.00,East,100,4.0,7.0,100,0.04,,,2.47,37.000000,,2013-01-15 18:03:00,
2013-01-15 13:34:00,43.0,43.0,-100.00,East,85,5.0,9.0,100,0.09,,,2.55,29.000000,,2013-01-15 18:34:00,
2013-01-15 13:43:00,43.0,43.0,-100.00,East,85,5.0,9.0,100,0.09,,,2.55,29.000000,,2013-01-15 18:43:00,
2013-01-15 13:54:00,43.0,43.0,-100.00,East,85,5.0,9.0,100,0.09,,,2.55,29.000000,,2013-01-15 18:54:00,
2013-01-15 14:03:00,43.0,43.0,-100.00,East,85,5.0,9.0,100,0.09,,,2.55,29.000000,,2013-01-15 19:03:00,
2013-01-15 14:33:00,43.0,43.0,-100.00,NE,52,5.0,10.0,100,0.09,,,2.55,30.000000,,2013-01-15 19:33:00,
2013-01-15 14:43:00,43.0,43.0,-100.00,NE,52,5.0,10.0,100,0.09,,,2.55,30.000000,,2013-01-15 19:43:00,
2013-01-15 14:53:00,43.0,43.0,-100.00,NE,52,5.0,10.0,100,0.09,,,2.55,30.000000,,2013-01-15 19:53:00,
2013-01-15 15:03:00,43.0,43.0,-100.00,NE,52,5.0,10.0,100,0.09,,,2.55,30.000000,,2013-01-15 20:03:00,
2013-01-15 15:33:00,43.0,43.0,-100.00,NE,40,3.0,9.0,100,0.10,,,2.51,24.000000,,2013-01-15 20:33:00,
2013-01-15 15:44:00,43.0,43.0,-100.00,NE,40,3.0,9.0,100,0.10,,,2.51,24.000000,,2013-01-15 20:44:00,
2013-01-15 15:53:00,43.0,43.0,-100.00,NE,40,3.0,9.0,100,0.10,,,2.51,24.000000,,2013-01-15 20:53:00,
2013-01-15 16:03:00,43.0,43.0,-100.00,NE,40,3.0,9.0,100,0.10,,,2.51,24.000000,,2013-01-15 21:03:00,
2013-01-15 16:34:00,43.0,43.0,-100.00,ENE,77,3.0,8.0,100,0.12,,,2.57,18.000000,,2013-01-15 21:34:00,
2013-01-15 16:43:00,43.0,43.0,-100.00,ENE,77,3.0,8.0,100,0.12,,,2.57,18.000000,,2013-01-15 21:43:00,
2013-01-15 16:53:00,43.0,43.0,-100.00,ENE,77,3.0,8.0,100,0.12,,,2.57,18.000000,,2013-01-15 21:53:00,
2013-01-15 17:03:00,43.0,43.0,-100.00,ENE,77,3.0,8.0,100,0.12,,,2.57,18.000000,,2013-01-15 22:03:00,
2013-01-15 17:33:00,43.0,43.0,-100.00,West,262,2.0,4.0,100,0.22,,,2.58,7.000000,,2013-01-15 22:33:00,
2013-01-15 17:43:00,43.0,43.0,-100.00,West,262,2.0,4.0,100,0.22,,,2.58,7.000000,,2013-01-15 22:43:00,
2013-01-15 17:53:00,43.0,43.0,-100.00,West,262,2.0,4.0,100,0.22,,,2.58,7.000000,,2013-01-15 22:53:00,
2013-01-15 18:03:00,43.0,43.0,-100.00,West,262,2.0,4.0,100,0.22,,,2.58,7.000000,,2013-01-15 23:03:00,
2013-01-15 18:33:00,43.0,43.0,-100.00,SE,126,1.0,4.0,100,0.18,,,2.62,0.000000,,2013-01-15 23:33:00,
2013-01-15 18:43:00,43.0,43.0,-100.00,SE,126,1.0,4.0,100,0.18,,,2.62,0.000000,,2013-01-15 23:43:00,
2013-01-15 18:53:00,43.0,43.0,-100.00,SE,126,1.0,4.0,100,0.18,,,2.62,0.000000,,2013-01-15 23:53:00,
2013-01-15 19:03:00,43.0,43.0,-100.00,SE,126,1.0,4.0,100,0.18,,,2.62,0.000000,,2013-01-16 00:03:00,
2013-01-15 19:33:00,44.0,44.0,-100.00,SE,145,2.0,5.0,100,0.08,,,2.57,0.000000,,2013-01-16 00:33:00,
2013-01-15 19:43:00,44.0,44.0,-100.00,SE,145,2.0,5.0,100,0.08,,,2.57,0.000000,,2013-01-16 00:43:00,
2013-01-15 19:53:00,44.0,44.0,-100.00,SE,145,2.0,5.0,100,0.08,,,2.57,0.000000,,2013-01-16 00:53:00,
2013-01-15 20:03:00,44.0,44.0,-100.00,SE,145,2.0,5.0,100,0.08,,,2.57,0.000000,,2013-01-16 01:03:00,
2013-01-15 20:33:00,44.0,44.0,-100.00,North,349,1.0,4.0,100,0.14,,,-99.99,0.000000,,2013-01-16 01:33:00,
2013-01-15 20:43:00,44.0,44.0,-100.00,North,349,1.0,4.0,100,0.14,,,-99.99,0.000000,,2013-01-16 01:43:00,
2013-01-15 20:53:00,44.0,44.0,-100.00,North,349,1.0,4.0,100,0.14,,,-99.99,0.000000,,2013-01-16 01:53:00,
2013-01-15 21:03:00,44.0,44.0,-100.00,North,349,1.0,4.0,100,0.14,,,-99.99,0.000000,,2013-01-16 02:03:00,
2013-01-15 21:33:00,44.0,44.0,-100.00,West,271,3.0,6.0,100,0.24,,,2.56,0.000000,,2013-01-16 02:33:00,
2013-01-15 21:43:00,44.0,44.0,-100.00,West,271,3.0,6.0,100,0.24,,,2.56,0.000000,,2013-01-16 02:43:00,
2013-01-15 21:53:00,44.0,44.0,-100.00,West,271,3.0,6.0,100,0.24,,,2.56,0.000000,,2013-01-16 02:53:00,
2013-01-15 22:03:00,44.0,44.0,-100.00,West,271,3.0,6.0,100,0.24,,,2.56,0.000000,,2013-01-16 03:03:00,
2013-01-15 22:33:00,45.0,45.0,-100.00,SW,220,1.0,4.0,100,0.22,,,2.69,0.000000,,2013-01-16 03:33:00,
2013-01-15 22:43:00,45.0,45.0,-100.00,SW,220,1.0,4.0,100,0.22,,,2.69,0.000000,,2013-01-16 03:43:00,
2013-01-15 22:53:00,45.0,45.0,-100.00,SW,220,1.0,4.0,100,0.22,,,2.69,0.000000,,2013-01-16 03:53:00,
2013-01-15 23:02:00,45.0,45.0,-100.00,SW,220,1.0,4.0,100,0.22,,,2.69,0.000000,,2013-01-16 04:02:00,
2013-01-15 23:33:00,45.0,45.0,-100.00,WNW,301,2.0,3.0,100,0.09,,,2.69,0.000000,,2013-01-16 04:33:00,
2013-01-15 23:42:00,45.0,45.0,-100.00,WNW,301,2.0,3.0,100,0.09,,,2.69,0.000000,,2013-01-16 04:42:00,
2013-01-15 23:53:00,45.0,45.0,-100.00,WNW,301,2.0,3.0,100,0.09,,,2.69,0.000000,,2013-01-16 04:53:00,